Jackson, KY

5:25 AM EDT on September 22, 2019 (GMT -0400)
Carroll

Weather History for KJKL - August, 2019

Change the Weather History Date:

Thursday, August 22, 2019

  Actual Average Record
Temperature  
Mean Temperature 80 °F 74 °F  
Max Temperature 90 °F 84 °F 95 °F (1983)
Min Temperature 70 °F 65 °F 54 °F (1985)
Degree Days  
Heating Degree Days 0 0  
Month to date heating degree days 0 0  
Since 1 June heating degree days 7 12  
Since 1 July heating degree days 0 0  
Cooling Degree Days 15 9  
Month to date cooling degree days 278 219  
Year to date cooling degree days 1072 899  
Since 1 June cooling degree days 850 763  
Growing Degree Days 30 (Base 50)    
Moisture  
Dew Point 70 °F    
Average Humidity 75    
Maximum Humidity 100    
Minimum Humidity 50    
Precipitation  
Precipitation 0.01 in 0.10 in 1.42 in (1984)
Month to date precipitation 0.08 2.78  
Year to date precipitation 38.29 32.64  
Snow  
Snow 0.00 in 0.00 in - ()
Month to date snowfall 0.0 0.0  
Since 1 June snowfall 0.0 0.0  
Since 1 July snowfall 0.0 0.0  
Snow Depth 0.00 in    
Sea Level Pressure  
Sea Level Pressure 30.00 in    
Wind  
Wind Speed 2 mph (West)    
Max Wind Speed 12 mph    
Max Gust Speed 17 mph    
Visibility 10 miles    
Events Rain , Thunderstorm    
T = Trace of Precipitation, MM = Missing Value Source: NWS Daily Summary

Daily Weather History Graph

Daily Weather History Graph

Search for Another Location

Airport or City:

Astronomy

Aug. 22, 2019 Rise Set
Actual Time 6:54 AM EDT 8:16 PM EDT
Civil Twilight 6:27 AM EDT 8:44 PM EDT
Nautical Twilight 5:54 AM EDT 9:16 PM EDT
Astronomical Twilight 5:20 AM EDT 9:51 PM EDT
Moon No Moon Rise 1:21 PM EDT
Length of Visible Light 14h 16m
Length of Day
13h 21m
Waning Gibbous, 60% of the Moon is Illuminated
Aug 22
Waning Gibbous
Aug 23
Last Quarter
Aug 30
New
Sep 5
First Quarter
Sep 14
Full

Hourly Weather History & Observations

Time (EDT) Temp. Heat Index Dew Point Humidity Pressure Visibility Wind Dir Wind Speed Gust Speed Precip Events Conditions
12:53 AM 77.0 °F - 71.1 °F 82% 29.98 in 10.0 mi Calm Calm - N/A   Mostly Cloudy
1:53 AM 77.0 °F - 71.1 °F 82% 29.96 in 10.0 mi Variable 4.6 mph - N/A   Partly Cloudy
2:53 AM 75.9 °F - 70.0 °F 82% 29.95 in 10.0 mi SW 3.5 mph - N/A   Clear
3:53 AM 75.9 °F - 70.0 °F 82% 29.96 in 10.0 mi Calm Calm - N/A   Clear
4:53 AM 73.9 °F - 70.0 °F 87% 29.96 in 10.0 mi Calm Calm - N/A   Clear
5:53 AM 73.0 °F - 71.1 °F 93% 29.97 in 10.0 mi Calm Calm - N/A   Clear
6:53 AM 75.0 °F - 71.1 °F 87% 29.98 in 10.0 mi SSW 3.5 mph - N/A   Mostly Cloudy
7:53 AM 73.9 °F - 72.0 °F 93% 30.01 in 10.0 mi West 4.6 mph - N/A   Mostly Cloudy
8:31 AM 73.9 °F - 72.0 °F 93% 30.06 in 10.0 mi Variable 3.5 mph - N/A   Mostly Cloudy
8:35 AM 73.9 °F - 72.0 °F 93% 30.06 in 10.0 mi North - - N/A   Scattered Clouds
8:48 AM 73.4 °F - 71.6 °F 94% 30.07 in 10.0 mi West 3.5 mph - N/A   Mostly Cloudy
8:53 AM 73.9 °F - 71.1 °F 91% 30.02 in 10.0 mi North - - N/A   Mostly Cloudy
9:05 AM 73.9 °F - 70.0 °F 87% 30.07 in 10.0 mi Variable 3.5 mph - N/A   Mostly Cloudy
9:14 AM 75.0 °F - 71.1 °F 87% 30.07 in 10.0 mi Variable 3.5 mph - N/A   Scattered Clouds
9:53 AM 77.0 °F - 71.1 °F 82% 30.01 in 10.0 mi Variable 4.6 mph - N/A   Partly Cloudy
10:53 AM 82.0 °F 86.3 °F 71.1 °F 69% 30.02 in 10.0 mi Calm Calm - N/A   Partly Cloudy
11:53 AM 82.0 °F 86.3 °F 71.1 °F 69% 30.02 in 10.0 mi Calm Calm - N/A   Scattered Clouds
12:16 PM 80.1 °F 83.2 °F 70.0 °F 71% 30.07 in 10.0 mi Calm Calm - N/A   Mostly Cloudy
12:31 PM 81.0 °F 84.9 °F 71.1 °F 72% 30.06 in 10.0 mi Variable 3.5 mph - N/A   Scattered Clouds
12:53 PM 81.0 °F 84.4 °F 70.0 °F 69% 30.02 in 10.0 mi Variable 3.5 mph - N/A   Clear
1:53 PM 84.0 °F 88.4 °F 70.0 °F 63% 30.00 in 10.0 mi Calm Calm - 0.00 in   Scattered Clouds
2:53 PM 89.1 °F 92.9 °F 68.0 °F 50% 29.97 in 10.0 mi Variable 5.8 mph - N/A   Clear
3:53 PM 88.0 °F 90.7 °F 66.9 °F 49% 29.95 in 10.0 mi WNW 9.2 mph 17.3 mph N/A   Clear
4:39 PM 84.0 °F 86.5 °F 66.9 °F 56% 30.00 in 10.0 mi West 6.9 mph - N/A Thunderstorm Clear
4:53 PM 82.9 °F 85.4 °F 66.9 °F 58% 29.96 in 10.0 mi Calm Calm - N/A Thunderstorm Mostly Cloudy
5:10 PM 75.9 °F - 71.1 °F 85% 30.02 in 10.0 mi Variable 5.8 mph - 0.00 in Rain Light Rain
5:21 PM 73.0 °F - 72.0 °F 96% 30.02 in 6.0 mi North - - 0.00 in Rain , Thunderstorm Light Rain
5:36 PM 73.0 °F - 72.0 °F 96% 30.01 in 9.0 mi Variable 3.5 mph - 0.01 in Rain Light Rain
5:53 PM 72.0 °F - 71.1 °F 97% 29.97 in 10.0 mi Calm Calm - 0.01 in   Clear
7:53 PM 73.0 °F - 70.0 °F 90% 29.96 in 10.0 mi Calm Calm - N/A   Clear
8:53 PM 72.0 °F - 70.0 °F 93% 29.96 in 10.0 mi Calm Calm - N/A   Clear
9:53 PM 72.0 °F - 71.1 °F 97% 29.98 in 10.0 mi Calm Calm - N/A   Scattered Clouds
10:26 PM 71.1 °F - 71.1 °F 100% 30.03 in 10.0 mi NW 4.6 mph - N/A   Partly Cloudy
10:53 PM 71.1 °F - 70.0 °F 96% 29.99 in 10.0 mi Calm Calm - N/A   Clear
11:53 PM 72.0 °F - 71.1 °F 97% 29.97 in 10.0 mi Calm Calm - N/A   Clear